Regional Weather Roundup
Issued by NWS

Home | Current Version | Previous Version | Graphics & Text | Print | Product List | Glossary On
Versions: 1 2 3 4 5 6 7 8 9 10 11 12 13 14 15 16 17 18 19 20 21 22 23 24 25 26 27 28 29 30 31 32 33 34 35 36 37 38 39 40 41 42 43 44 45 46 47 48 49 50
339
ASUS45 KPSR 261310
RWRAZ

ARIZONA HOURLY REGIONAL WEATHER ROUNDUP
NATIONAL WEATHER SERVICE PHOENIX AZ
600 AM MST WED JUL 26 2017

NOTE: FAIR INDICATES FEW OR NO CLOUDS BELOW 12,000 FEET WITH NO
SIGNIFICANT WEATHER AND/OR OBSTRUCTIONS TO VISIBILITY.

AZZ001>003-036-261400-
NORTHWEST ARIZONA

CITY           SKY/WX    TMP DP  RH WIND       PRES   REMARKS
KINGMAN        PTCLDY    67  62  84 SE3       30.14S
$$

AZZ004>008-015-016-018-261400-
NORTH CENTRAL ARIZONA

CITY           SKY/WX    TMP DP  RH WIND       PRES   REMARKS
GRAND CANYON   CLEAR     52  51  97 NE5       30.36S
WILLIAMS       CLEAR     54  52  94 S8        30.37R
PRESCOTT       MOCLDY    62  61  96 SW3       30.27R
FLAGSTAFF      CLEAR     52  52 100 SW5       30.39R
PAYSON         CLEAR     64  59  82 CALM      30.29S
PAGE           CLEAR     70  61  73 N3        30.21R
$$

AZZ009>014-017-261400-
NORTHEAST ARIZONA

CITY           SKY/WX    TMP DP  RH WIND       PRES   REMARKS
WINSLOW        CLEAR     65  58  78 N3        30.26R
SAINT JOHNS    CLEAR     62  60  93 S5        30.30R
WINDOW ROCK    CLEAR     58  54  86 CALM      30.37R
SHOW LOW       CLEAR     57  55  94 S5        30.37R
$$

AZZ540-542>544-546-548-261400-
GREATER PHOENIX AREA

CITY           SKY/WX    TMP DP  RH WIND       PRES   REMARKS
PHOENIX        MOCLDY    84  70  62 E6        29.96R
BUCKEYE        CLEAR     79  72  78 CALM      29.96R
GLENDALE       MOCLDY    84  66  54 CALM      29.98
LUKE AFB       MOCLDY    82  69  66 NW3       29.96R
DEER VALLEY    CLEAR     82  65  56 NE8       29.98R
SCOTTSDALE     PTCLDY    83  66  56 CALM      30.00R
MESA-FALCON    MOCLDY    82  70  65 N10       29.99
MESA-GATEWAY   PTCLDY    81  72  74 SE5       30.00R
CHANDLER       MOCLDY    84  68  58 N7        29.98
$$

AZZ539-553-261400-
SOUTHWEST MARICOPA COUNTY AND PINAL COUNTY

CITY           SKY/WX    TMP DP  RH WIND       PRES   REMARKS
CASA GRANDE    PTCLDY    84  68  58 CALM      30.00R
GILA BEND      FAIR      82  67  59 SE6       29.94R
$$

AZZ503-504-507>509-261400-
SOUTHEAST ARIZONA

CITY           SKY/WX    TMP DP  RH WIND       PRES   REMARKS
TUCSON         MOCLDY    76  67  73 S6        30.10R
DAVIS-MONTHAN  CLOUDY    76  68  76 SE5       30.09R
RYAN FIELD     PTCLDY    75  68  78 NE5       30.09
NOGALES        MOCLDY    70  65  84 CALM      30.19R
SIERRA VISTA   CLOUDY    72  63  73 N6        30.24
DOUGLAS        CLOUDY    71  67  87 SE3       30.19R
SAFFORD        CLEAR     74  71  91 CALM      30.10R
$$

AZZ532-261400-
SOUTHWEST ARIZONA

CITY           SKY/WX    TMP DP  RH WIND       PRES   REMARKS
YUMA           CLEAR     84  44  24 NE7       29.88R
$$

CAZ041-043-047-048-061-525>527-560>570-261400-
SOUTHERN CALIFORNIA

CITY           SKY/WX    TMP DP  RH WIND       PRES   REMARKS
DOWNTOWN L.A.  PTCLDY    68  62  81 W3        30.00R
L.A. AIRPORT   MOCLDY    67  63  87 W6        30.00S
SAN DIEGO      CLOUDY    72  65  78 NW5       30.01S
BURBANK        CLEAR     66  61  84 CALM      30.01R
ONTARIO        PTCLDY    65  61  87 W9        30.01S
RIVERSIDE      CLEAR     65  62  90 W6        30.02R
PALM SPRINGS   PTCLDY    83  64  52 W3        29.92R
EL CENTRO NAS  PTCLDY    75  59  57 CALM      29.88R
IMPERIAL       CLEAR     78  61  55 SW3       29.86R
BLYTHE         CLEAR     82  47  29 N3        29.90R
NEEDLES        PTCLDY    84  70  62 N7        29.96R
$$

NVZ020-UTZ003-261400-
SOUTHERN NEVADA-UTAH

CITY           SKY/WX    TMP DP  RH WIND       PRES   REMARKS
LAS VEGAS      PTCLDY    79  67  66 CALM      30.06S
SALT LAKE CITY CLOUDY    67  64  90 SW5       30.19R
$$

NMZ009-TXZ055-261400-
NEW MEXICO-WEST TEXAS

CITY           SKY/WX    TMP DP  RH WIND       PRES   REMARKS
ALBUQUERQUE    CLOUDY    71  57  61 CALM      30.26R
EL PASO        PTCLDY    78  67  68 S6        30.13R
$$


........................KEY........................
SKY/WX - SKY CONDITION/WEATHER
TMP    - TEMPERATURE IN FAHRENHEIT
DP     - DEW POINT IN FAHRENHEIT
RH     - RELATIVE HUMIDITY IN PERCENT
WIND   - DIRECTION AND SPEED IN MILES PER HOUR (MPH)
VRB    - VARIABLE WIND DIRECTION
PRES   - MEAN SEA LEVEL PRESSURE IN INCHES OF MERCURY
         F - FALLING PRESSURE   R - RISING PRESSURE
         S - STEADY PRESSURE
VSB    - VISIBILITY IN MILES
HX     - HEAT INDEX IN FAHRENHEIT
WCI    - WIND CHILL INDEX IN FAHRENHEIT
TC     - TEMPERATURE IN CELSIUS WHICH IS ALSO KNOWN AS
         TEMPERATURE IN CENTIGRADE
AFB    - AIR FORCE BASE
         LUKE AFB IS LUKE AIR FORCE BASE
         DAVIS-MONTHAN IS DAVIS-MONTHAN AIR FORCE BASE
NAS    - NAVAL AIR STATION
         EL CENTRO NAS IS EL CENTRO NAVAL AIR STATION
N/A    - NOT AVAILABLE





USA.gov is the U.S. government's official web portal to all federal, state and local government web resources and services.